Location: Newark
(20.0000°S, 47.0000°E)
Time: 17:18:00
(UTC+00:00)

Hubble Space Telescope - Visible Passes

Search period start: 17 June 2019 00:00
Search period end: 27 June 2019 00:00
Orbit: 536 x 540 km, 28.5° (Epoch: 16 June)

Date Brightness Start Highest point End Pass type
(mag) Time Alt. Az. Time Alt. Az. Time Alt. Az.
17 Jun 2.3 16:02:31 10° W 16:06:16 32° NNW 16:07:35 26° N visible
18 Jun 2.9 15:52:18 10° W 15:55:43 24° NNW 15:58:43 12° NNE visible
19 Jun 3.4 15:42:15 10° WNW 15:45:08 18° NNW 15:48:00 10° NNE visible
20 Jun 3.7 15:32:31 10° WNW 15:34:33 13° NNW 15:36:35 10° N visible
24 Jun 3.8 03:01:38 10° N 03:03:22 12° NNE 03:05:07 10° NE visible
25 Jun 3.6 02:50:06 10° N 02:52:48 17° NNE 02:55:30 10° ENE visible
26 Jun 3.2 02:38:57 10° NNW 02:42:13 23° NNE 02:45:30 10° E visible
